STARLINK-1272, 45386

Orbit data source: Space-Track

STARLINK-1272, 45386 is a payload satellite owned by SpaceX/Seattle (US) in LEO that was launched on Wed, 18 Mar 2020 UTC via an FALCON 9 launch vehicle from the Air Force Eastern Test Range (AFETR). Payload-class satellites include a variety of spacecraft equipped with specific instruments for various scientific and technological missions. These include communications satellites like Starlink; space stations such as the ISS; scientific satellites like the Hubble; Earth observation satellites from companies like Planet Labs, Umbra, and HawkEye 360; GPS; miniature CubeSats for education and research; and military/defense satellites.

Loading next visibility...
Identifier
45386, 2020-019AC
Orbit
LEO
Last TLE update
10 hours ago
Origin
Manufacturer
SpaceX/Seattle
Mission
Operational Commercial Communications
Bus & Motor
STARLINK, Unknown motor
Mass
260 kg wet, ~248 kg dry
Launch date (UTC)
2020-03-18 (5 years ago)
Launch vehicle
FALCON 9
Launch site
Air Force Eastern Test Range (AFETR)
Object type
Payload
Rocket body
Debris
Shape & HBR
Box + 1 Pan, 8.86 m
Radar Cross Section
13.562 m², Large (>1 m²)

Expand to show TLE details & history

TLE from 10 hours ago
0 STARLINK-1272
1 45386U 20019AC  25189.91692715  .00001091  00000-0  92141-4 0  9995
2 45386  53.0546 160.9577 0001388  88.1297 271.9851 15.06391926293268
Epoch: 2025-07-08T22:00Z
TLE epoch observation values (Epoch: 2025-07-08T22:00:22.505Z)
Latitude
-0.00003°
Longitude
-96.24113°
Altitude
548.082 km
Speed
7.589 km/s
True Right ascension
10h 43m 49s
True Declination
0° 00' 00"
Sunlit
Object was in daylight at epoch
Visualization orbit readout
Latitude
43.32109°
Longitude
37.01392°
Altitude
550.72 km
Speed
7.592 km/s
Apparent Right ascension
14h 36m 36s
Apparent Declination
37° 56' 41"
Sunlit
Object is in full shadow
Visualization observer readout
Local Sidereal Time
20:15:19
Azimuth
298.407° NW
Elevation
26.786°
Doppler factor
1
Orbital elements
Apogee altitude
548.468 km
Perigee altitude
546.546 km
Semi-major axis
6,925.644 km
Eccentricity
0.00014
Inclination
53.0546°
RAAN
160.9577°
Arg. of periapsis
88.1297°
True anomaly
Unknown
Mean anomaly
271.9851°
Eccentric anomaly
Unknown
Mean motion
3.76576 °/min
Orbital period
95.6 mins
BSTAR
0.000092141
Loading maneuver chart data...
Loading SW <> Apogee altitude chart data...
Loading historical data...
Loading historical data...
Loading historical data...
Loading historical data...
Loading historical data...
Loading historical data...
Loading historical data...

STARLINK-1272 Visibility forecast

Observer location: undefined°, undefined°

Span
Click to sort rows by Start time (UTC) header in descending order
Start Az.
Max El. time (UTC)
Max El. Az.
Max El.
End time (UTC)
End Az.
6 mins2025-07-09 08:05:43.109Z297.852° NW2025-07-09 08:07:43.109Z234.064° WSW42.183°2025-07-09 08:11:43.109Z141.797° SSE
5 mins2025-07-09 23:38:43.109Z168.897° S2025-07-09 23:40:43.109Z129.877° SE21.631°2025-07-09 23:43:43.109Z78.55° E
6 mins2025-07-10 01:17:43.109Z259.071° W2025-07-10 01:19:43.109Z308.464° NW36.672°2025-07-10 01:23:43.109Z40.568° NE
5 mins2025-07-10 06:19:43.109Z340.554° N2025-07-10 06:21:43.109Z24.609° NE26.362°2025-07-10 06:24:43.109Z84.394° E
6 mins2025-07-10 07:58:43.109Z293.397° NW2025-07-10 08:01:43.109Z213.721° SW35.984°2025-07-10 08:04:43.109Z154.795° SSE
|